Temp
14 14 14 14 14 14 13 13 13 12 11 11 11 12 12 12 12 13 13 12 13 12 12 13 12 12 12 12 12 12 11 11 11 11 10 10 10 10 10 11 11 10
14 14 14 14 14 13 12 12 12 12 11 11 11 12 12 12 12 12 12 12 12 12 13 13 12 12 12 12 12 12 12 11 11 11 11 11 10 11 11 11 11 11
14 14 14 14 13 12 11 11 11 12 11 11 11 12 12 12 12 12 12 12 12 12 13 12 12 12 12 12 12 12 12 12 11 11 11 11 11 11 11 11 11 11
14 14 14 13 12 11 11 11 12 12 11 11 11 12 12 12 12 12 12 12 12 12 12 12 12 12 12 12 12 12 12 12 11 11 11 11 11 11 11 11 11 11
13 13 13 12 11 11 11 11 12 12 11 11 11 11 12 12 11 12 12 12 12 12 12 12 12 12 12 11 11 11 12 12 11 11 11 11 11 11 11 11 11 11
12 12 12 11 11 11 11 12 12 12 11 11 11 11 11 11 11 11 12 12 12 12 12 12 12 12 11 11 11 11 11 11 12 11 11 11 11 11 11 11 11 11
11 11 11 11 10 10 11 11 11 11 11 10 10 11 11 11 11 11 11 11 11 11 11 11 11 11 11 11 11 11 11 11 11 11 11 11 11 11 11 11 11 11
11 11 11 10 10 11 11 11 10 10 9 9 10 10 11 11 11 11 11 11 10 10 11 11 11 11 11 11 11 11 11 11 11 11 11 11 11 11 11 11 11 11
10 10 10 10 10 10 10 10 10 9 9 9 9 9 9 10 10 10 10 10 10 10 10 11 11 11 11 11 11 11 11 11 11 11 11 11 11 10 10 11 11 11
10 10 10 10 10 10 10 10 9 9 9 9 9 8 8 9 9 10 10 10 10 10 10 11 11 11 11 11 11 11 11 11 11 11 11 11 10 10 10 11 11 10
9 9 9 10 10 10 10 9 9 9 9 8 8 8 9 9 10 10 10 10 10 10 10 11 11 11 11 11 11 11 11 11 11 11 11 10 10 10 10 11 11 10
9 9 10 10 10 10 9 9 9 8 8 9 9 9 9 9 9 10 10 10 10 10 10 10 11 11 11 11 11 11 11 11 11 11 11 11 10 11 11 11 11 10
10 10 10 10 10 9 9 9 9 9 9 9 9 9 9 9 9 9 10 10 10 10 10 10 10 10 10 10 10 10 10 11 11 11 11 11 11 11 11 11 11 10
10 10 10 10 10 9 9 9 9 9 9 9 9 9 9 9 9 9 9 10 10 10 10 10 10 10 10 10 10 10 10 10 10 10 10 10 10 10 10 10 10 10
11 10 10 10 10 9 9 9 9 9 9 9 9 9 9 9 9 9 9 9 10 10 10 10 10 10 9 9 9 9 9 9 10 10 10 10 10 10 9 9 9 9
10 10 10 9 9 9 9 9 9 9 9 9 9 9 9 9 9 9 9 9 9 9 9 9 9 9 8 8 8 9 9 9 9 9 10 10 10 9 9 8 8 8
9 9 9 9 8 8 8 8 8 8 9 9 8 8 8 8 9 9 9 9 9 8 9 9 8 7 7 7 8 8 8 9 9 9 9 9 9 8 8 8 8 8
9 9 8 8 8 8 8 8 8 8 8 8 8 8 8 8 8 8 8 8 8 8 8 8 7 7 7 7 7 8 8 8 8 9 9 8 8 7 7 8 8 8
8 8 8 8 8 8 8 8 8 8 8 8 8 8 8 8 8 8 8 8 8 8 8 7 7 6 6 7 7 7 7 7 7 8 8 7 7 6 6 7 7 8
8 8 8 8 8 8 8 8 8 8 8 7 7 7 7 7 7 7 7 7 7 7 7 7 6 6 5 6 6 6 6 7 7 7 7 6 6 6 6 6 6 6
8 8 8 8 8 8 8 8 8 7 7 7 7 7 7 7 7 7 7 6 6 6 6 6 5 5 5 5 5 6 6 6 6 6 6 6 6 6 5 5 5 5
7 7 8 7 7 7 7 7 7 7 6 6 6 6 6 6 6 6 6 6 6 6 6 6 5 5 5 5 5 5 5 6 6 6 6 5 5 5 5 5 5 5
7 7 7 7 7 7 7 7 6 6 6 6 6 6 6 6 6 6 6 6 6 6 5 5 5 4 4 5 5 5 5 5 5 5 5 5 4 4 4 4 4 4
6 7 7 7 7 7 7 6 6 6 5 5 6 6 6 6 6 6 6 5 5 5 5 5 5 4 4 4 4 4 5 5 5 5 5 4 4 4 4 4 4 4
6 6 6 7 7 6 6 6 5 5 5 5 6 6 6 5 5 5 5 5 5 5 5 5 5 4 4 4 4 4 4 4 5 5 4 4 4 4 4 3 3 3
6 6 6 6 6 6 6 5 5 5 5 5 5 5 5 5 5 5 5 5 5 5 5 5 4 4 4 4 4 4 4 4 5 4 4 3 4 3 3 3 3 2
Height
1535 1535 1534 1534 1533 1533 1533 1532 1532 1532 1531 1531 1531 1530 1530 1529 1528 1526 1525 1524 1522 1521 1519 1517 1515 1513 1511 1509 1507 1504 1502 1501 1499 1498 1496 1495 1494 1494 1492 1491 1490 1489
1534 1534 1533 1533 1533 1533 1532 1532 1532 1531 1531 1531 1530 1530 1529 1528 1527 1526 1525 1523 1521 1520 1518 1517 1515 1513 1511 1509 1506 1504 1502 1500 1498 1497 1495 1494 1493 1492 1490 1489 1488 1487
1533 1533 1533 1533 1532 1532 1532 1532 1531 1531 1531 1530 1530 1529 1529 1528 1527 1526 1524 1522 1521 1519 1518 1516 1514 1512 1510 1508 1506 1504 1502 1500 1498 1496 1495 1494 1492 1491 1489 1488 1486 1485
1533 1533 1532 1532 1532 1532 1533 1532 1531 1531 1531 1530 1529 1529 1528 1527 1526 1525 1524 1522 1520 1519 1517 1515 1514 1512 1510 1508 1506 1504 1502 1500 1498 1496 1495 1493 1492 1491 1489 1488 1486 1484
1532 1532 1532 1532 1532 1532 1532 1532 1531 1531 1530 1529 1529 1528 1527 1527 1526 1525 1523 1522 1520 1518 1517 1515 1513 1512 1510 1508 1506 1504 1502 1500 1498 1496 1495 1493 1492 1490 1489 1488 1486 1484
1532 1532 1532 1532 1532 1532 1532 1531 1531 1530 1530 1529 1528 1528 1527 1527 1526 1524 1523 1521 1520 1518 1517 1515 1513 1511 1510 1508 1506 1504 1502 1500 1498 1496 1494 1493 1492 1491 1489 1488 1486 1484
1532 1533 1532 1532 1532 1532 1532 1531 1531 1530 1529 1529 1528 1528 1528 1527 1526 1524 1523 1521 1520 1518 1517 1515 1513 1512 1510 1508 1506 1505 1503 1500 1498 1497 1495 1493 1492 1491 1490 1487 1485 1484
1532 1533 1532 1533 1533 1532 1532 1531 1531 1530 1529 1529 1528 1528 1527 1527 1526 1524 1523 1522 1520 1519 1517 1515 1513 1512 1510 1509 1507 1505 1503 1501 1499 1497 1495 1494 1492 1491 1490 1488 1486 1484
1532 1533 1533 1533 1533 1533 1532 1531 1530 1530 1530 1529 1529 1528 1528 1527 1526 1525 1523 1522 1521 1519 1517 1516 1514 1513 1511 1509 1507 1505 1503 1501 1500 1498 1496 1495 1493 1491 1490 1488 1486 1484
1532 1533 1533 1533 1533 1532 1532 1531 1531 1530 1530 1530 1529 1529 1528 1527 1526 1525 1524 1523 1521 1519 1518 1516 1515 1513 1511 1509 1507 1506 1504 1502 1500 1498 1497 1495 1494 1492 1490 1489 1487 1485
1532 1533 1533 1533 1533 1532 1532 1531 1531 1531 1531 1531 1531 1530 1529 1528 1527 1526 1524 1523 1521 1519 1518 1517 1515 1514 1512 1510 1508 1506 1505 1503 1501 1499 1498 1496 1495 1493 1491 1489 1487 1486
1533 1533 1533 1533 1533 1532 1532 1532 1532 1532 1532 1532 1531 1531 1530 1529 1527 1526 1525 1523 1522 1520 1519 1517 1516 1514 1513 1511 1509 1508 1506 1504 1503 1501 1499 1497 1496 1494 1492 1490 1488 1487
1533 1533 1533 1533 1533 1532 1533 1533 1533 1533 1533 1532 1532 1531 1530 1529 1528 1526 1525 1524 1523 1521 1520 1518 1517 1515 1514 1512 1510 1509 1507 1506 1504 1502 1501 1499 1497 1495 1493 1491 1490 1488
1533 1533 1533 1533 1533 1533 1533 1534 1534 1534 1533 1533 1532 1531 1531 1529 1528 1527 1526 1524 1523 1522 1521 1519 1518 1516 1514 1513 1512 1510 1509 1507 1506 1504 1502 1500 1498 1496 1494 1493 1491 1489
1533 1533 1533 1533 1534 1534 1534 1535 1534 1534 1534 1533 1533 1532 1531 1530 1529 1528 1526 1525 1524 1523 1521 1520 1519 1517 1515 1514 1513 1511 1510 1509 1507 1505 1503 1502 1500 1498 1496 1494 1493 1491
1534 1534 1534 1534 1534 1535 1535 1535 1535 1535 1534 1534 1533 1532 1532 1531 1530 1529 1527 1526 1525 1523 1522 1521 1519 1518 1517 1516 1515 1513 1512 1510 1508 1507 1505 1503 1501 1499 1497 1496 1494 1493
1534 1534 1534 1535 1535 1536 1536 1536 1536 1535 1535 1534 1534 1533 1533 1532 1531 1530 1528 1527 1526 1525 1523 1522 1520 1520 1519 1518 1516 1515 1513 1512 1510 1508 1506 1504 1503 1501 1500 1498 1496 1495
1535 1535 1535 1536 1536 1536 1536 1536 1536 1536 1536 1535 1535 1534 1534 1533 1532 1531 1530 1529 1527 1526 1524 1523 1522 1522 1521 1520 1518 1517 1515 1513 1511 1510 1508 1506 1504 1503 1502 1500 1498 1497
1535 1536 1536 1536 1537 1537 1537 1537 1537 1537 1537 1536 1536 1535 1535 1534 1533 1532 1531 1530 1528 1527 1526 1525 1524 1523 1523 1521 1520 1519 1517 1515 1513 1511 1509 1507 1506 1504 1503 1501 1500 1498
1536 1537 1537 1537 1537 1538 1538 1538 1538 1538 1538 1537 1537 1537 1536 1535 1534 1533 1532 1531 1530 1529 1527 1526 1525 1525 1524 1523 1522 1520 1518 1517 1515 1513 1511 1509 1508 1506 1505 1503 1501 1499
1537 1538 1538 1538 1538 1539 1539 1539 1539 1539 1539 1539 1538 1538 1537 1536 1535 1534 1533 1532 1531 1530 1529 1528 1527 1527 1526 1525 1523 1522 1520 1518 1516 1515 1513 1511 1509 1508 1506 1505 1503 1502
1538 1539 1539 1539 1539 1540 1540 1540 1540 1540 1540 1540 1540 1539 1538 1537 1536 1535 1535 1534 1533 1532 1531 1530 1529 1529 1528 1527 1525 1524 1522 1520 1518 1516 1514 1513 1511 1509 1508 1507 1505 1504
1540 1540 1540 1540 1540 1540 1541 1541 1541 1541 1541 1541 1541 1540 1540 1539 1538 1537 1536 1535 1535 1534 1533 1532 1531 1531 1530 1528 1527 1525 1523 1521 1520 1518 1516 1514 1513 1511 1510 1508 1507 1505
1541 1541 1541 1541 1541 1542 1542 1542 1542 1542 1542 1543 1543 1542 1541 1540 1539 1539 1538 1537 1536 1535 1534 1534 1533 1532 1532 1530 1529 1527 1525 1523 1522 1520 1518 1516 1515 1514 1512 1511 1509 1508
1541 1542 1542 1542 1542 1543 1543 1543 1543 1543 1544 1544 1544 1543 1542 1542 1541 1540 1539 1538 1538 1537 1536 1535 1534 1534 1533 1532 1530 1529 1527 1526 1524 1522 1520 1519 1518 1516 1515 1513 1512 1510
1542 1543 1543 1543 1544 1544 1544 1545 1545 1545 1545 1546 1545 1545 1544 1543 1543 1542 1541 1540 1539 1539 1538 1537 1536 1535 1534 1533 1532 1530 1529 1527 1525 1523 1522 1521 1520 1518 1517 1515 1514 1513
Wind_Speed
15 16 17 18 18 18 18 18 18 17 17 16 15 14 15 16 16 17 17 18 18 18 19 19 20 20 21 21 22 21 19 17 18 18 16 16 16 16 17 17 18 19
16 16 16 16 16 15 15 16 16 15 15 14 13 13 15 15 15 16 16 17 17 17 18 18 18 19 19 20 20 20 19 17 17 18 17 15 15 15 16 17 18 19
14 14 13 13 13 13 13 14 15 15 12 12 12 12 14 15 14 14 15 16 17 16 17 18 18 18 18 18 19 18 17 16 17 17 17 17 16 15 15 17 18 17
13 12 12 11 11 11 11 12 13 11 9 10 12 12 13 13 13 14 15 16 16 16 17 18 17 17 17 18 18 18 17 16 17 18 17 17 16 16 16 16 17 15
10 10 10 10 11 10 9 10 10 9 7 9 11 11 12 12 13 14 15 15 16 16 17 17 17 17 17 17 17 17 18 17 17 18 17 16 16 16 16 16 16 15
9 10 10 10 9 8 8 9 8 7 7 9 11 11 11 11 13 14 14 15 16 16 17 17 18 18 17 16 16 17 18 17 17 17 17 16 16 16 17 17 17 16
9 9 9 8 6 6 7 7 6 7 7 8 10 9 10 11 12 13 14 15 16 17 19 19 18 18 17 17 17 17 17 17 16 17 16 16 15 16 17 19 18 16
7 6 5 5 4 5 5 4 5 6 6 8 9 9 10 11 12 13 14 15 16 18 19 19 19 18 18 18 18 18 18 18 18 17 17 16 16 17 18 19 19 17
5 4 3 3 2 2 2 3 5 6 7 9 10 10 11 12 13 15 15 15 15 17 18 18 19 18 19 19 19 19 20 19 19 18 18 17 17 18 18 18 18 18
4 2 1 1 1 1 2 4 6 7 8 10 12 11 12 12 13 14 14 15 15 16 17 17 18 18 19 19 19 19 20 20 20 19 19 19 19 19 19 19 19 19
4 4 3 2 2 2 4 5 8 10 11 12 12 13 13 13 13 13 13 14 15 16 16 16 17 19 20 20 20 21 21 20 21 21 21 21 20 20 20 20 20 19
6 5 4 3 3 4 6 9 12 13 12 12 12 13 13 12 12 13 13 13 14 14 15 15 17 18 20 21 22 21 21 21 22 22 22 22 22 22 21 21 21 21
6 5 5 6 7 10 12 14 14 12 11 11 11 11 11 12 12 12 12 12 12 13 13 14 14 15 18 20 20 20 20 20 21 21 21 21 22 22 22 22 22 23
8 8 8 11 13 14 15 14 12 11 11 11 10 10 11 11 11 11 11 11 12 12 11 11 12 13 16 19 20 20 20 20 20 19 18 19 21 22 22 23 23 23
11 12 13 14 15 15 14 12 11 11 10 10 10 11 11 11 10 10 10 10 10 10 10 10 11 13 17 18 19 19 20 21 20 19 18 18 19 21 23 23 23 24
15 15 15 15 14 13 12 11 10 10 10 10 10 11 11 11 10 10 10 11 11 11 11 11 14 17 19 19 19 19 20 20 20 20 20 19 20 21 23 24 24 25
15 15 14 14 13 12 11 11 10 10 10 10 10 10 11 11 11 11 12 13 14 14 15 16 19 20 20 20 20 20 20 20 20 21 21 21 22 23 24 24 24 25
14 14 13 13 12 11 11 10 10 9 9 9 9 10 10 10 11 12 13 14 15 15 17 19 21 20 20 20 20 20 19 19 19 19 19 20 21 22 22 22 23 24
13 13 13 12 11 11 11 10 9 9 9 9 9 9 9 9 11 12 13 13 14 15 16 18 19 20 19 19 19 19 19 18 18 18 18 18 19 19 19 19 21 22
13 12 12 12 12 12 11 10 10 10 10 10 9 9 9 10 11 12 12 13 14 15 15 17 19 20 19 19 19 19 19 19 19 18 19 19 19 20 20 20 21 22
12 11 12 12 12 11 10 10 10 10 11 10 9 9 10 11 12 12 13 14 15 15 15 17 19 19 19 19 19 19 19 19 20 20 20 21 21 21 22 22 23 23
12 12 12 12 11 10 9 10 10 10 10 10 9 10 11 11 12 13 14 15 15 15 16 18 20 19 19 19 19 18 18 19 19 20 20 21 22 23 23 23 23 24
13 11 11 10 9 8 9 10 10 10 11 10 9 10 11 12 13 15 16 17 17 18 19 20 22 22 21 21 20 20 19 20 20 20 21 22 23 24 24 25 26 26
12 10 10 10 10 10 10 11 11 11 12 11 10 11 13 15 15 17 18 19 19 20 20 21 21 22 21 21 22 22 22 22 22 22 23 24 25 25 26 27 28 29
12 11 10 11 11 12 13 13 13 13 13 12 12 13 15 16 16 17 18 19 19 19 19 19 20 21 21 21 21 21 22 22 22 23 25 25 25 26 27 28 29 30
13 12 12 12 13 14 14 14 14 14 13 12 13 14 15 15 15 15 17 18 18 18 19 20 20 21 21 21 21 21 21 21 22 24 25 24 24 26 26 28 28 29
Wind_Direction
302 301 298 295 296 300 304 304 306 310 311 311 313 318 323 324 324 326 328 330 330 332 336 340 342 345 348 350 352 352 349 346 346 340 323 308 304 302 301 297 294 293
294 294 293 293 297 301 301 302 305 309 310 308 311 318 320 322 326 330 332 333 334 339 343 345 347 348 350 352 354 356 356 355 355 353 346 336 325 316 311 308 303 295
286 288 290 293 296 295 295 295 299 308 312 308 311 316 317 323 331 334 337 338 339 346 351 352 352 353 355 357 355 356 358 357 356 358 359 357 353 343 333 328 323 312
278 282 286 288 288 290 292 295 303 316 319 311 314 316 318 327 334 337 342 344 346 354 358 358 359 360 2 2 360 359 0 359 356 355 355 358 0 356 348 344 344 342
271 274 279 280 280 284 296 310 325 335 327 316 319 323 325 331 336 342 349 352 355 2 5 6 8 8 9 10 9 7 6 5 3 0 358 358 0 358 352 349 350 355
257 263 269 273 274 285 309 329 338 339 334 328 328 332 335 338 345 353 0 5 10 15 16 15 15 13 13 14 14 12 10 10 9 8 7 3 0 357 352 349 346 350
252 257 261 269 279 304 327 339 340 340 345 339 335 343 348 351 360 9 16 22 26 25 23 20 18 16 16 16 16 12 9 9 11 12 10 6 3 0 357 354 349 345
251 251 256 276 297 314 328 342 346 352 358 349 351 5 10 11 18 23 28 32 31 27 24 23 21 21 20 19 17 12 8 9 12 11 8 4 3 2 0 2 359 351
245 248 263 286 296 313 349 10 10 11 11 11 20 28 27 26 30 32 33 33 31 29 28 27 26 25 24 21 18 15 14 15 16 14 10 5 3 2 2 2 3 1
231 223 218 193 157 81 42 30 27 31 33 35 40 41 38 36 36 38 38 35 34 34 31 30 31 30 28 24 20 18 17 18 19 18 18 15 12 8 6 4 4 5
180 167 156 138 109 62 48 50 55 58 57 54 50 47 45 41 38 42 42 37 37 38 38 39 39 36 32 30 28 26 25 24 24 26 28 28 24 18 14 10 9 9
151 149 141 120 100 81 76 75 74 73 68 60 53 48 45 40 39 43 44 43 45 45 45 44 43 39 34 32 32 31 32 31 30 31 33 32 30 27 23 19 15 13
142 137 124 106 97 92 88 85 81 75 67 59 52 46 43 41 42 43 43 44 44 42 40 40 40 39 36 32 29 27 26 26 26 28 30 30 30 29 27 26 23 19
129 121 110 102 97 93 90 87 81 72 65 58 50 45 46 44 41 39 35 32 30 26 27 29 29 33 34 31 27 23 20 18 18 19 21 24 27 30 30 30 29 27
116 110 105 101 97 94 92 86 79 72 64 57 51 48 46 41 36 31 25 22 21 17 19 21 23 29 32 28 24 22 19 15 16 19 21 24 28 32 33 32 33 36
112 107 104 101 97 95 91 84 77 70 63 58 54 50 46 42 36 30 26 24 23 22 23 26 31 35 33 27 25 25 23 22 23 23 25 28 30 33 35 36 40 44
113 108 104 101 98 94 89 81 74 67 61 58 55 52 49 46 41 37 35 34 32 32 33 37 40 39 33 29 28 27 25 25 25 24 25 28 31 34 37 40 42 42
114 109 106 103 98 92 84 76 69 63 60 57 57 56 53 49 47 45 45 44 43 41 42 46 46 41 35 31 29 27 25 25 25 24 25 28 32 36 37 37 35 33
116 113 109 103 95 87 80 76 70 65 62 59 59 61 58 55 55 53 52 52 50 48 49 52 49 41 34 29 27 26 25 25 28 29 30 32 35 37 34 30 26 24
117 113 106 99 93 87 83 79 74 70 68 68 68 68 65 62 60 57 55 52 50 49 49 50 48 42 34 28 26 25 24 25 29 32 35 36 36 35 33 31 27 25
116 111 104 99 94 90 86 82 79 79 79 78 77 72 67 63 60 56 54 52 51 48 47 49 49 43 36 31 28 26 26 26 28 31 33 35 35 33 32 33 32 30
117 112 107 102 98 94 90 88 88 88 86 81 75 71 66 63 61 59 58 57 56 53 53 55 54 48 42 38 34 30 29 28 29 32 34 36 37 35 34 34 33 31
121 117 111 105 102 100 96 96 93 90 86 81 76 73 71 68 67 68 67 66 66 64 63 63 61 56 52 49 45 42 40 38 37 38 41 43 43 42 41 40 38 35
121 118 113 110 109 105 100 98 95 91 89 86 81 79 78 77 76 76 74 71 69 67 65 64 62 59 54 52 50 48 47 47 46 46 47 48 48 47 46 44 43 41
120 119 116 113 111 105 100 98 96 93 92 89 86 84 83 83 80 77 75 71 68 65 63 60 58 56 51 48 48 46 46 47 47 47 47 47 47 46 46 45 44 43
120 120 117 114 110 106 103 100 96 95 94 92 89 88 87 85 80 76 74 71 66 63 60 57 54 52 49 46 45 44 43 44 45 46 45 43 44 43 42 42 41 41